Location: *
(46.3500°N, 10.9000°E)
Time: 21:54:17
(UTC+00:00)

Explorer 7 - Pass Details

Date: 20 April 2021
Orbit: 484 x 677 km, 50.3° (Epoch: 05 May)

Event Time Altitude Azimuth Distance (km) Brightness Sun altitude
Rises 01:31:42 0° 291° (WNW) 2,869 - -24.5°
Reaches altitude 10° 01:34:06 10° 283° (WNW) 1,994 - -24.3°
Maximum altitude 01:38:15 34° 218° (SW) 1,055 - -23.8°
Drops below altitude 10° 01:42:34 10° 154° (SSE) 2,071 - -23.4°
Sets 01:45:07 0° 145° (SE) 2,997 - -23.1°
